SKYNET 4E

Last updated on Jan. 15, 2021, 6:30 a.m. UTC

1 25639U 99009B   21014.23104917 -.00000042  00000-0  00000-0 0  9994
2 25639  10.9847  19.8051 0003646 268.9695 267.1360  1.00270411 31537
UTC
Height (km)
Latitude
Longitude
Inclination
Orbital Period
UTC large
Height (km)
Speed (km/s)
/
Latitude / Longitude
Inclination (degrees)
Orbital Period (minutes)
Azimuth
Elevation
Range (km)
Doppler Factor
iOS Compass Heading
iOS Angle

Next 30 passes for location: Hong Kong

Rise time Rise Azimuth (degrees) Set time Set Azimuth (degrees) Duration Max altitude (degrees)

No matching passes for this satellites